Location: Arbon
(43.0005°N, 0.7472°E)
Time: 07:30:01
(UTC+00:00)

Vanguard 1 - Pass Details

Date: 27 November 2020
Orbit: 648 x 3834 km, 34.3° (Epoch: 21 January)

Event Time Altitude Azimuth Distance (km) Brightness Sun altitude
Rises 05:34:40 0° 235° (SW) 3,514 - -16.1°
Exits shadow 05:35:48 - 232° (SW) 3,139 12.3 -15.9°
Reaches altitude 10° 05:36:53 10° 227° (SW) 2,799 12.1 -15.7°
Maximum altitude 05:43:15 42° 158° (SSE) 1,949 11.9 -14.5°
Drops below altitude 10° 05:54:18 10° 94° (E) 4,837 15.0 -12.6°
Sets 05:59:28 0° 89° (E) 6,388 15.7 -11.7°
